DW6757 Weather Reports


Display with metric or nautical units.
time (UTC)temp
F
wind
direction
speed
MPH
gust
MPH
rain 1hr
in
rain 24hr
in
rain mn
in
humidity
%
barometer
mb
20260905111025 78 0 0.0 0.0 0.00 0.00 0.00 90 1012.8
20260905110504 78 0 0.0 0.0 0.00 0.00 0.00 89 1012.9
20260905110004 78 0 0.0 0.0 0.00 0.00 0.00 89 1012.8
20260905105504 78 0 0.0 0.0 0.00 0.00 0.00 89 1012.8
20260905105004 79 0 0.0 0.0 0.00 0.00 0.00 89 1012.8
20260905104505 79 0 0.0 0.0 0.00 0.00 0.00 89 1012.7
20260905104004 79 0 0.0 0.0 0.00 0.00 0.00 89 1012.7
20260905103505 79 0 0.0 0.0 0.00 0.00 0.00 89 1012.7
20260905103004 79 0 0.0 0.0 0.00 0.00 0.00 88 1012.7
20260905102504 79 0 0.0 0.0 0.00 0.00 0.00 88 1012.7
20260905102003 79 0 0.0 0.0 0.00 0.00 0.00 88 1012.7
20260905101503 79 0 0.0 0.0 0.00 0.00 0.00 88 1012.6
20260905101005 79 0 0.0 0.0 0.00 0.00 0.00 88 1012.7
20260905100503 79 0 0.0 0.0 0.00 0.00 0.00 88 1012.7
20260905100004 79 0 0.0 0.0 0.00 0.00 0.00 88 1012.8
20260905095504 79 0 0.0 0.0 0.00 0.00 0.00 88 1012.7
20260905095004 79 81 0.0 1.0 0.00 0.00 0.00 88 1012.8
20260905094504 79 81 0.0 1.0 0.00 0.00 0.00 88 1012.7
20260905094005 79 0 0.0 0.0 0.00 0.00 0.00 88 1012.6
20260905093504 79 0 0.0 0.0 0.00 0.00 0.00 88 1012.5
20260905093025 80 0 0.0 0.0 0.00 0.00 0.00 88 1012.6
20260905092524 80 81 0.0 1.0 0.00 0.00 0.00 88 1012.5
20260905092004 80 81 1.0 3.0 0.00 0.00 0.00 88 1012.4
20260905091503 80 81 1.0 3.0 0.00 0.00 0.00 88 1012.5
20260905091004 80 81 2.0 4.0 0.00 0.00 0.00 87 1012.6
20260905090504 80 81 2.0 4.0 0.00 0.00 0.00 87 1012.7
20260905090003 80 81 1.0 2.0 0.00 0.00 0.00 87 1012.5
20260905085525 80 81 1.0 2.0 0.00 0.00 0.00 87 1012.5
20260905085004 80 81 1.0 2.0 0.00 0.00 0.00 87 1012.5
20260905084504 80 81 1.0 2.0 0.00 0.00 0.00 87 1012.5
20260905084024 80 81 0.0 2.0 0.00 0.00 0.00 87 1012.5
20260905083504 80 81 0.0 2.0 0.00 0.00 0.00 86 1012.6
20260905083004 80 81 1.0 3.0 0.00 0.00 0.00 86 1012.5
20260905082525 80 91 2.0 3.0 0.00 0.00 0.00 87 1012.7
20260905082024 80 108 1.0 3.0 0.00 0.00 0.00 86 1012.8
20260905081504 80 146 0.0 2.0 0.00 0.00 0.00 86 1012.8
20260905081004 80 146 0.0 1.0 0.00 0.00 0.00 86 1012.8
20260905080503 80 146 0.0 1.0 0.00 0.00 0.00 86 1012.8
20260905080003 80 0 0.0 0.0 0.00 0.00 0.00 85 1012.9
20260905075505 80 0 0.0 0.0 0.00 0.00 0.00 85 1013.0
20260905075003 80 0 0.0 0.0 0.00 0.00 0.00 85 1013.1
20260905074505 80 0 0.0 0.0 0.00 0.00 0.00 85 1013.0
20260905074003 80 0 0.0 0.0 0.00 0.00 0.00 85 1013.2
20260905073503 80 146 0.0 1.0 0.00 0.00 0.00 85 1013.1
20260905073003 80 146 1.0 2.0 0.00 0.00 0.00 85 1013.1
20260905072503 80 146 1.0 2.0 0.00 0.00 0.00 85 1013.3
20260905072003 80 146 0.0 1.0 0.00 0.00 0.00 85 1013.5
20260905071525 80 146 0.0 1.0 0.00 0.00 0.00 85 1013.4
20260905071003 80 146 0.0 1.0 0.00 0.00 0.00 85 1013.4
20260905070504 81 146 0.0 1.0 0.00 0.00 0.00 85 1013.4
20260905070004 81 146 0.0 2.0 0.00 0.00 0.00 85 1013.4
20260905065503 81 146 0.0 2.0 0.00 0.00 0.00 85 1013.5
20260905065004 81 146 1.0 3.0 0.00 0.00 0.00 85 1013.5
20260905064504 81 149 1.0 4.0 0.00 0.00 0.00 84 1013.4
20260905064004 81 158 2.0 5.0 0.00 0.00 0.00 84 1013.4
20260905063504 81 161 3.0 6.0 0.00 0.00 0.00 84 1013.4
20260905063003 81 156 3.0 6.0 0.00 0.00 0.00 84 1013.3
20260905062525 81 156 2.0 6.0 0.00 0.00 0.00 83 1013.5
20260905062004 81 166 2.0 6.0 0.00 0.00 0.00 83 1013.6
20260905061503 81 167 3.0 6.0 0.00 0.00 0.00 83 1013.6
20260905061004 81 164 2.0 6.0 0.00 0.00 0.00 82 1013.6
20260905060503 81 166 2.0 5.0 0.00 0.00 0.00 82 1013.7
20260905060004 82 166 2.0 5.0 0.00 0.00 0.00 82 1013.6
20260905055503 82 161 2.0 5.0 0.00 0.00 0.00 81 1013.6
20260905055025 82 161 2.0 5.0 0.00 0.00 0.00 81 1013.5
20260905054503 82 160 3.0 6.0 0.00 0.00 0.00 81 1013.5
20260905054003 82 160 3.0 6.0 0.00 0.00 0.00 80 1013.3
20260905053503 82 164 3.0 6.0 0.00 0.00 0.00 80 1013.4
20260905053003 82 161 3.0 6.0 0.00 0.00 0.00 80 1013.4
20260905052503 82 159 3.0 7.0 0.00 0.00 0.00 80 1013.4
20260905052004 82 158 3.0 7.0 0.00 0.00 0.00 80 1013.4
20260905051503 82 159 3.0 6.0 0.00 0.00 0.00 79 1013.4
20260905051004 82 160 3.0 5.0 0.00 0.00 0.00 79 1013.5
20260905050504 82 156 3.0 6.0 0.00 0.00 0.00 79 1013.5
20260905050004 82 151 3.0 6.0 0.00 0.00 0.00 79 1013.5
20260905045503 83 151 4.0 7.0 0.00 0.00 0.00 78 1013.4
20260905045024 83 152 4.0 7.0 0.00 0.00 0.00 78 1013.4
20260905044504 83 152 4.0 7.0 0.00 0.00 0.00 77 1013.5
20260905044003 83 152 4.0 7.0 0.00 0.00 0.00 77 1013.5
20260905043503 83 155 4.0 7.0 0.00 0.00 0.00 76 1013.6
20260905043004 83 155 4.0 7.0 0.00 0.00 0.00 76 1013.6
20260905042503 84 148 4.0 8.0 0.00 0.00 0.00 75 1013.6
20260905042004 84 147 4.0 8.0 0.00 0.00 0.00 75 1013.5
20260905041526 84 150 4.0 8.0 0.00 0.00 0.00 74 1013.6
20260905041004 84 151 4.0 7.0 0.00 0.00 0.00 73 1013.5
20260905040503 84 147 3.0 7.0 0.00 0.00 0.00 73 1013.5
20260905040004 84 145 3.0 7.0 0.00 0.00 0.00 72 1013.5
20260905035503 84 146 3.0 7.0 0.00 0.00 0.00 72 1013.4
20260905035003 84 148 3.0 5.0 0.00 0.00 0.00 71 1013.4
20260905034503 84 144 3.0 5.0 0.00 0.00 0.00 71 1013.3
20260905034004 84 137 3.0 5.0 0.00 0.00 0.00 71 1013.3
20260905033504 84 136 3.0 7.0 0.00 0.00 0.00 71 1013.2
20260905033003 85 135 3.0 7.0 0.00 0.00 0.00 71 1013.2
20260905032525 84 127 2.0 7.0 0.00 0.00 0.00 71 1013.1
20260905032003 85 117 2.0 7.0 0.00 0.00 0.00 71 1013.0
20260905031503 85 117 2.0 7.0 0.00 0.00 0.00 70 1012.9
20260905031004 85 116 3.0 8.0 0.00 0.00 0.00 70 1012.8
20260905030504 85 114 3.0 8.0 0.00 0.00 0.00 70 1012.8
20260905030003 85 112 2.0 8.0 0.00 0.00 0.00 69 1012.8
20260905025524 85 109 3.0 6.0 0.00 0.00 0.00 68 1012.7
20260905025026 85 105 3.0 6.0 0.00 0.00 0.00 68 1012.7
20260905024504 85 102 3.0 7.0 0.00 0.00 0.00 67 1012.8
20260905024003 85 102 3.0 8.0 0.00 0.00 0.00 67 1012.8
20260905023524 86 100 3.0 8.0 0.00 0.00 0.00 66 1012.8
20260905023025 86 97 3.0 7.0 0.00 0.00 0.00 65 1012.7
20260905022505 86 95 3.0 7.0 0.00 0.00 0.00 64 1012.6
20260905022024 86 100 3.0 7.0 0.00 0.00 0.00 64 1012.5
20260905021525 86 109 3.0 9.0 0.00 0.00 0.00 63 1012.4
20260905021003 86 113 3.0 9.0 0.00 0.00 0.00 64 1012.2
20260905020504 86 111 3.0 8.0 0.00 0.00 0.00 64 1012.3
20260905020004 86 102 2.0 8.0 0.00 0.00 0.00 65 1012.3
20260905015503 86 100 1.0 3.0 0.00 0.00 0.00 65 1012.2
20260905015025 86 98 1.0 3.0 0.00 0.00 0.00 65 1012.1
20260905014503 87 90 2.0 3.0 0.00 0.00 0.00 64 1012.0
20260905014003 87 89 2.0 3.0 0.00 0.00 0.00 64 1011.9
20260905013503 87 91 1.0 3.0 0.00 0.00 0.00 64 1011.8
20260905013004 87 96 1.0 3.0 0.00 0.00 0.00 63 1011.8
20260905012503 87 96 2.0 3.0 0.00 0.00 0.00 63 1011.8
20260905012005 88 95 2.0 6.0 0.00 0.00 0.00 63 1011.8
20260905011506 88 92 2.0 7.0 0.00 0.00 0.00 62 1011.8
20260905011005 88 97 2.0 7.0 0.00 0.00 0.00 62 1011.8
20260905010526 88 103 2.0 6.0 0.00 0.00 0.00 62 1011.8
20260905010005 88 102 2.0 5.0 0.00 0.00 0.00 62 1011.6
20260905005505 88 97 3.0 7.0 0.00 0.00 0.00 62 1011.5
20260905005027 88 91 4.0 7.0 0.00 0.00 0.00 62 1011.4
20260905004505 89 84 5.0 9.0 0.00 0.00 0.00 61 1011.4
20260905004006 89 85 5.0 10.0 0.00 0.00 0.00 61 1011.4
20260905003505 89 88 5.0 10.0 0.00 0.00 0.00 60 1011.2
20260905003005 90 87 6.0 16.0 0.00 0.00 0.00 60 1011.2
20260905002526 90 85 7.0 16.0 0.00 0.00 0.00 59 1011.0
20260905002005 90 84 6.0 11.0 0.00 0.00 0.00 59 1011.0
20260905001505 91 89 5.0 11.0 0.00 0.00 0.00 57 1010.9
20260905001026 91 86 6.0 13.0 0.00 0.00 0.00 56 1010.9
20260905000526 91 82 8.0 13.0 0.00 0.00 0.00 57 1010.8
20260905000005 92 83 7.0 13.0 0.00 0.00 0.00 55 1010.8
20260904235506 93 85 5.0 11.0 0.00 0.00 0.00 53 1010.7
20260904235005 93 89 3.0 10.0 0.00 0.00 0.00 51 1010.7
20260904234505 93 91 4.0 11.0 0.00 0.00 0.00 50 1010.7
20260904234005 93 88 5.0 11.0 0.00 0.00 0.00 50 1010.6
20260904233505 93 96 4.0 11.0 0.00 0.00 0.00 51 1010.6
20260904233005 93 92 6.0 13.0 0.00 0.00 0.00 51 1010.7
20260904232505 93 83 7.0 13.0 0.00 0.00 0.00 51 1010.8
20260904232005 94 87 6.0 13.0 0.00 0.00 0.00 50 1010.8
20260904231505 94 94 4.0 11.0 0.00 0.00 0.00 51 1010.8
20260904231005 93 97 4.0 10.0 0.00 0.00 0.00 52 1010.8
20260904230506 93 101 5.0 12.0 0.00 0.00 0.00 51 1010.9
20260904230005 93 94 6.0 12.0 0.00 0.00 0.00 51 1010.9
20260904225505 93 87 6.0 12.0 0.00 0.00 0.00 52 1010.9
20260904225005 93 89 6.0 12.0 0.00 0.00 0.00 51 1010.9
20260904224505 93 87 7.0 13.0 0.00 0.00 0.00 52 1010.9
20260904224005 93 83 8.0 13.0 0.00 0.00 0.00 53 1010.9
20260904223505 93 98 6.0 13.0 0.00 0.00 0.00 53 1011.0
20260904223005 93 134 5.0 11.0 0.00 0.00 0.00 54 1011.1
20260904222505 93 121 4.0 11.0 0.00 0.00 0.00 55 1011.1
20260904222026 92 91 5.0 10.0 0.00 0.00 0.00 56 1011.1
20260904221505 91 85 4.0 10.0 0.00 0.00 0.00 57 1011.1
20260904221005 91 87 3.0 8.0 0.00 0.00 0.00 58 1011.1
20260904220505 91 81 5.0 10.0 0.00 0.00 0.00 59 1011.3
20260904220005 90 80 5.0 10.0 0.00 0.00 0.00 59 1011.4
20260904215505 90 81 6.0 10.0 0.00 0.00 0.00 59 1011.5
20260904215005 90 80 6.0 10.0 0.00 0.02 0.00 59 1011.6
20260904214505 90 81 5.0 11.0 0.00 0.02 0.00 59 1011.6
20260904214026 90 82 6.0 11.0 0.00 0.02 0.00 59 1011.8
20260904213526 91 86 6.0 11.0 0.00 0.02 0.00 58 1011.8
20260904213005 92 89 4.0 11.0 0.00 0.02 0.00 57 1011.9
20260904212505 92 95 4.0 9.0 0.00 0.02 0.00 56 1011.9
20260904212005 92 105 3.0 9.0 0.00 0.02 0.00 55 1011.8
20260904211505 92 96 4.0 10.0 0.00 0.02 0.00 55 1012.0
20260904211005 92 81 6.0 10.0 0.00 0.02 0.00 56 1012.1
20260904210505 92 78 6.0 10.0 0.00 0.02 0.00 57 1012.1
20260904210006 92 83 5.0 10.0 0.00 0.02 0.00 57 1012.2
20260904205505 92 87 5.0 12.0 0.00 0.02 0.00 57 1012.3
20260904205026 92 91 5.0 12.0 0.00 0.02 0.00 57 1012.3
20260904204505 92 116 4.0 10.0 0.00 0.02 0.00 56 1012.4
20260904204005 92 149 3.0 8.0 0.00 0.02 0.00 55 1012.4
20260904203505 92 154 3.0 7.0 0.00 0.02 0.00 53 1012.5
20260904203027 92 156 3.0 8.0 0.00 0.02 0.00 52 1012.5
20260904202505 92 157 5.0 11.0 0.00 0.02 0.00 52 1012.6
20260904202005 92 146 4.0 11.0 0.00 0.02 0.00 51 1012.5
20260904201505 92 133 4.0 10.0 0.00 0.02 0.00 54 1012.6
20260904201005 92 156 4.0 10.0 0.00 0.02 0.00 55 1012.6
20260904200506 92 153 4.0 10.0 0.00 0.02 0.00 54 1012.6
20260904200005 92 134 4.0 9.0 0.00 0.02 0.00 55 1012.6
20260904195505 92 159 4.0 9.0 0.00 0.02 0.00 54 1012.6
20260904195005 93 188 4.0 14.0 0.00 0.02 0.00 54 1012.7
20260904194506 93 202 5.0 14.0 0.00 0.02 0.00 54 1012.7
20260904194005 93 196 4.0 11.0 0.00 0.02 0.00 54 1012.8
20260904193505 92 157 4.0 10.0 0.00 0.02 0.00 56 1012.8
20260904193005 93 162 4.0 10.0 0.00 0.02 0.00 56 1012.8
20260904192505 93 168 4.0 8.0 0.00 0.02 0.00 57 1012.9
20260904192005 92 181 4.0 10.0 0.00 0.02 0.00 56 1012.8
20260904191505 92 180 3.0 10.0 0.00 0.02 0.00 57 1012.9
20260904191005 92 144 3.0 9.0 0.00 0.02 0.00 58 1013.0
20260904190505 92 117 4.0 8.0 0.00 0.02 0.00 59 1013.1
20260904190026 91 143 4.0 10.0 0.00 0.02 0.00 61 1013.1
20260904185505 90 160 4.0 10.0 0.00 0.02 0.00 61 1013.2
20260904185005 90 125 5.0 10.0 0.00 0.02 0.00 61 1013.2
20260904184526 90 106 4.0 10.0 0.00 0.02 0.00 62 1013.3
20260904184005 90 128 4.0 10.0 0.00 0.02 0.00 62 1013.3
20260904183505 90 138 4.0 9.0 0.00 0.02 0.00 62 1013.4
20260904183005 91 151 4.0 9.0 0.00 0.02 0.00 61 1013.4
20260904182505 90 186 4.0 9.0 0.00 0.02 0.00 62 1013.5
20260904182005 90 190 4.0 8.0 0.00 0.02 0.00 61 1013.5
20260904181505 90 184 4.0 12.0 0.00 0.02 0.00 61 1013.5
20260904181005 91 192 5.0 12.0 0.00 0.02 0.00 62 1013.7
20260904180505 91 198 5.0 10.0 0.00 0.02 0.00 63 1013.7
20260904180005 90 201 6.0 9.0 0.00 0.02 0.00 64 1013.7
20260904175505 90 195 5.0 9.0 0.00 0.02 0.00 62 1013.8
20260904175005 90 166 3.0 9.0 0.00 0.02 0.00 65 1013.8
20260904174505 89 194 4.0 9.0 0.00 0.02 0.00 66 1013.9
20260904174005 89 191 5.0 11.0 0.00 0.02 0.00 66 1013.9
20260904173526 89 175 5.0 11.0 0.00 0.02 0.00 66 1013.9
20260904173005 89 172 5.0 8.0 0.00 0.02 0.00 68 1014.0
20260904172526 88 169 5.0 9.0 0.00 0.02 0.00 67 1014.1
20260904172005 88 171 4.0 9.0 0.00 0.02 0.00 70 1014.1
20260904171505 88 171 4.0 9.0 0.00 0.02 0.00 71 1014.2
20260904171005 87 148 4.0 8.0 0.00 0.02 0.00 70 1014.4
20260904170505 87 142 3.0 8.0 0.00 0.02 0.00 72 1014.3
20260904170026 86 182 3.0 11.0 0.00 0.02 0.00 73 1014.5
20260904165505 87 186 4.0 11.0 0.00 0.02 0.00 72 1014.5
20260904165005 86 192 3.0 10.0 0.00 0.02 0.00 73 1014.5
20260904164504 86 173 4.0 7.0 0.00 0.02 0.00 73 1014.5
20260904164004 86 160 3.0 7.0 0.00 0.02 0.00 74 1014.6
20260904163505 86 183 3.0 5.0 0.00 0.02 0.00 75 1014.7
20260904163005 85 203 3.0 7.0 0.00 0.02 0.00 76 1014.7
20260904162505 85 206 4.0 7.0 0.00 0.02 0.00 76 1014.7
20260904162005 85 192 4.0 7.0 0.00 0.02 0.00 76 1014.6
20260904161505 85 186 4.0 8.0 0.00 0.02 0.00 76 1014.7
20260904161005 84 197 4.0 8.0 0.00 0.02 0.00 78 1014.6
20260904160505 84 191 4.0 9.0 0.00 0.02 0.00 78 1014.5
20260904160005 84 178 4.0 9.0 0.00 0.02 0.00 78 1014.4
20260904155505 84 176 4.0 10.0 0.00 0.02 0.00 78 1014.4
20260904155005 84 173 3.0 10.0 0.00 0.02 0.00 79 1014.4
20260904154505 84 182 3.0 8.0 0.00 0.02 0.00 80 1014.3
20260904154005 84 181 4.0 8.0 0.00 0.02 0.00 79 1014.4
20260904153506 84 185 4.0 7.0 0.00 0.02 0.00 80 1014.3
20260904153005 84 193 4.0 7.0 0.00 0.02 0.00 81 1014.2
20260904152506 83 203 4.0 8.0 0.00 0.02 0.00 82 1014.1
20260904152026 83 197 4.0 8.0 0.00 0.02 0.00 82 1014.1
20260904151526 83 168 3.0 6.0 0.00 0.02 0.00 83 1014.1
20260904151004 83 156 2.0 5.0 0.00 0.02 0.00 84 1014.1
20260904150505 82 166 3.0 8.0 0.00 0.02 0.00 84 1014.1
20260904150005 82 185 3.0 8.0 0.00 0.02 0.00 85 1014.0
20260904145505 82 189 3.0 8.0 0.00 0.02 0.00 85 1014.1
20260904145005 82 178 3.0 8.0 0.00 0.02 0.00 86 1014.2
20260904144505 82 176 3.0 6.0 0.00 0.02 0.00 86 1014.1
20260904144005 81 175 3.0 7.0 0.00 0.02 0.00 87 1014.1
20260904143505 81 177 2.0 7.0 0.00 0.02 0.00 87 1014.1
20260904143004 81 188 2.0 5.0 0.00 0.02 0.00 88 1014.1
20260904142505 81 184 2.0 4.0 0.00 0.02 0.00 88 1014.1
20260904142004 81 181 2.0 4.0 0.00 0.02 0.00 88 1014.2
20260904141526 80 175 2.0 4.0 0.00 0.02 0.00 89 1014.1
20260904141026 80 174 2.0 5.0 0.00 0.02 0.00 89 1014.1
20260904140505 80 177 1.0 5.0 0.00 0.02 0.00 89 1014.0
20260904140026 80 165 1.0 3.0 0.00 0.02 0.00 90 1014.0
20260904135504 80 159 1.0 3.0 0.00 0.02 0.00 90 1014.0
20260904135005 80 151 2.0 4.0 0.00 0.02 0.00 90 1013.9
20260904134505 79 152 2.0 5.0 0.00 0.02 0.00 90 1013.9
20260904134005 79 154 2.0 5.0 0.00 0.02 0.00 90 1013.8
20260904133505 79 149 2.0 5.0 0.00 0.02 0.00 91 1013.8
20260904133005 79 145 2.0 5.0 0.00 0.02 0.00 91 1013.7
20260904132505 79 132 2.0 4.0 0.00 0.02 0.00 91 1013.8
20260904132004 79 118 1.0 3.0 0.00 0.02 0.00 91 1013.7
20260904131504 79 112 1.0 3.0 0.00 0.02 0.00 91 1013.7
20260904131025 78 100 1.0 3.0 0.00 0.02 0.00 91 1013.7
20260904130504 78 94 1.0 3.0 0.00 0.02 0.00 91 1013.7
20260904130005 78 94 1.0 2.0 0.00 0.02 0.00 91 1013.6
20260904125505 78 94 1.0 3.0 0.00 0.02 0.00 91 1013.6
20260904125004 78 94 1.0 3.0 0.00 0.02 0.00 91 1013.6
20260904124504 78 92 2.0 4.0 0.00 0.02 0.00 91 1013.6
20260904124004 78 90 2.0 6.0 0.00 0.02 0.00 91 1013.5
20260904123505 78 91 2.0 6.0 0.00 0.02 0.00 91 1013.4
20260904123005 78 96 1.0 3.0 0.00 0.02 0.00 91 1013.4
20260904122525 78 94 1.0 4.0 0.00 0.02 0.00 91 1013.4
20260904122025 78 95 1.0 4.0 0.00 0.02 0.00 91 1013.4
20260904121505 78 98 1.0 4.0 0.00 0.02 0.00 91 1013.3
20260904121027 78 95 1.0 7.0 0.00 0.02 0.00 91 1013.3
20260904120505 78 92 2.0 7.0 0.00 0.02 0.00 91 1013.3
20260904120026 78 93 2.0 5.0 0.00 0.02 0.00 91 1013.2
20260904115526 78 94 2.0 4.0 0.00 0.02 0.00 91 1013.2
20260904115005 78 96 1.0 4.0 0.00 0.02 0.00 91 1013.1
20260904114505 78 95 1.0 4.0 0.00 0.02 0.00 91 1013.0
20260904114025 78 93 2.0 4.0 0.00 0.02 0.00 91 1013.0
20260904113506 78 90 2.0 4.0 0.00 0.02 0.00 91 1012.9
20260904113005 78 89 2.0 4.0 0.00 0.02 0.00 91 1012.8
20260904112505 78 88 2.0 4.0 0.00 0.02 0.00 91 1012.9
20260904112025 78 88 2.0 4.0 0.00 0.02 0.00 91 1012.9
20260904111505 78 87 2.0 4.0 0.00 0.02 0.00 91 1012.9